TimeEDT,TemperatureF,Dew PointF,Humidity,Sea Level PressureIn,VisibilityMPH,Wind Direction,Wind SpeedMPH,Gust SpeedMPH,PrecipitationIn,Events,Conditions,WindDirDegrees,DateUTC
12:51 AM,41.0,27.0,57,30.09,10.0,SSW,11.5,-,N/A,,Overcast,200,2013-04-05 04:51:00
1:51 AM,41.0,28.9,62,30.09,10.0,SW,13.8,-,N/A,,Overcast,220,2013-04-05 05:51:00
2:51 AM,41.0,30.0,65,30.05,10.0,SSW,10.4,-,N/A,,Overcast,210,2013-04-05 06:51:00
3:51 AM,42.1,30.9,65,30.02,10.0,SSW,12.7,-,N/A,,Overcast,210,2013-04-05 07:51:00
4:51 AM,41.0,32.0,70,29.99,10.0,SSW,9.2,-,0.00,Rain,Light Rain,200,2013-04-05 08:51:00
5:51 AM,39.9,34.0,79,29.98,10.0,SW,4.6,-,0.00,,Overcast,220,2013-04-05 09:51:00
6:51 AM,39.9,34.0,79,29.97,10.0,South,6.9,-,N/A,,Overcast,180,2013-04-05 10:51:00
7:51 AM,41.0,35.1,79,29.95,10.0,South,3.5,-,N/A,,Overcast,190,2013-04-05 11:51:00
8:51 AM,41.0,35.1,79,29.93,10.0,Calm,Calm,-,0.00,,Mostly Cloudy,0,2013-04-05 12:51:00
9:51 AM,45.0,36.0,71,29.89,10.0,Calm,Calm,-,N/A,,Mostly Cloudy,0,2013-04-05 13:51:00
10:51 AM,50.0,30.9,48,29.87,10.0,NNW,4.6,-,N/A,,Mostly Cloudy,330,2013-04-05 14:51:00
11:51 AM,54.0,21.9,29,29.84,10.0,North,9.2,16.1,N/A,,Scattered Clouds,360,2013-04-05 15:51:00
12:51 PM,57.0,21.9,26,29.80,10.0,NNW,10.4,-,N/A,,Partly Cloudy,330,2013-04-05 16:51:00
1:51 PM,60.1,17.1,19,29.75,10.0,NW,15.0,-,N/A,,Partly Cloudy,310,2013-04-05 17:51:00
2:51 PM,57.9,25.0,28,29.74,10.0,SSW,12.7,-,N/A,,Partly Cloudy,200,2013-04-05 18:51:00
3:51 PM,57.9,23.0,26,29.71,10.0,SSW,9.2,-,N/A,,Scattered Clouds,200,2013-04-05 19:51:00
4:26 PM,62.6,19.4,19,29.71,10.0,NW,18.4,28.8,N/A,,Scattered Clouds,320,2013-04-05 20:26:00
4:51 PM,63.0,18.0,18,29.72,10.0,NW,20.7,29.9,N/A,,Scattered Clouds,320,2013-04-05 20:51:00
5:51 PM,60.1,18.0,20,29.77,10.0,NNW,18.4,27.6,N/A,,Partly Cloudy,340,2013-04-05 21:51:00
6:51 PM,57.0,12.0,17,29.80,10.0,NNW,19.6,-,N/A,,Partly Cloudy,330,2013-04-05 22:51:00
7:51 PM,54.0,12.0,19,29.84,10.0,NNW,19.6,-,N/A,,Partly Cloudy,330,2013-04-05 23:51:00
8:51 PM,52.0,14.0,22,29.88,10.0,NNW,17.3,27.6,N/A,,Clear,330,2013-04-06 00:51:00
9:51 PM,50.0,14.0,24,29.94,10.0,NNW,19.6,29.9,N/A,,Clear,330,2013-04-06 01:51:00
10:51 PM,46.0,18.0,33,29.96,10.0,NNW,19.6,27.6,N/A,,Clear,330,2013-04-06 02:51:00
11:51 PM,43.0,16.0,34,29.98,10.0,NNW,19.6,-,N/A,,Clear,340,2013-04-06 03:51:00